Regional Weather Roundup
Issued by NWS

Home | Current Version | Previous Version | Text Only | Print | Product List | Glossary On
Versions: 1 2 3 4 5 6 7 8 9 10 11 12 13 14 15 16 17 18 19 20 21 22 23 24 25 26 27 28 29 30 31 32 33 34 35 36 37 38 39 40 41 42 43 44 45 46 47 48 49 50
000
ASUS43 KMKX 090611
RWRWI

WISCONSIN REGIONAL WEATHER ROUNDUP
NATIONAL WEATHER SERVICE MILWAUKEE/SULLIVAN WI
1200 AM CST FRI DEC 09 2016

NOTE: "FAIR" INDICATES FEW OR NO CLOUDS BELOW 12,000 FEET WITH NO
SIGNIFICANT WEATHER AND/OR OBSTRUCTIONS TO VISIBILITY.

WIZ001-002-006>008-014>016-023>028-090700-
NORTHWEST WISCONSIN

CITY           SKY/WX    TMP DP  RH WIND       PRES   REMARKS
SUPERIOR ARPT  PTCLDY    16   8  72 NW14      30.48R WCI   1
6HR MIN TEMP:  16; 6HR MAX TEMP:  22;

ASHLAND        CLEAR     16   9  74 NW8       30.43R WCI   5
6HR MIN TEMP:  16; 6HR MAX TEMP:  23; 6HR PCP: TRACE;

HAYWARD        CLOUDY    18   9  68 VRB5      30.41R WCI  11
6HR MIN TEMP:  18; 6HR MAX TEMP:  22; 6HR PCP: TRACE;

SIREN          MOCLDY    13   9  86 NW5       30.47S WCI   5
6HR MIN TEMP:  12; 6HR MAX TEMP:  23;

CUMBERLAND     CLEAR     14   9  79 NW10      30.43S WCI   1
RICE LAKE      CLEAR     16  11  78 W7        30.45S WCI   7
6HR MIN TEMP:  16; 6HR MAX TEMP:  23;

CHETEK         CLEAR     17  11  79 NW6       30.45R WCI   8
6HR MIN TEMP:  17; 6HR MAX TEMP:  24;

LADYSMITH      FLURRIES  20  14  75 NW14      30.41S WCI   7
6HR MIN TEMP:  20; 6HR MAX TEMP:  24;

EAU CLAIRE     MOCLDY    20  12  71 NW8       30.45R WCI  10
6HR MIN TEMP:  20; 6HR MAX TEMP:  23; 6HR PCP: TRACE;

MENOMONIE      CLEAR     19  14  81 W8        30.46S WCI   8
6HR MIN TEMP:  19; 6HR MAX TEMP:  24;

NEW RICHMOND   FLURRIES  18  13  79 W7        30.49R WCI   9
6HR MIN TEMP:  17; 6HR MAX TEMP:  22;

OSCEOLA        FLURRIES  19  13  79 NW9       30.52S WCI   8
6HR MIN TEMP:  19; 6HR MAX TEMP:  23;

$$

WIZ003>005-009-010-017-018-090700-
NORTH CENTRAL WISCONSIN

CITY           SKY/WX    TMP DP  RH WIND       PRES   REMARKS
MANITOWISH WTR LGT SNOW  16  15  96 NW8       30.31R WCI   5
6HR MIN TEMP:  16; 6HR MAX TEMP:  20;

ARBOR VITAE    FLURRIES  19  14  79 NW10G16   30.30S WCI   8
6HR MIN TEMP:  19; 6HR MAX TEMP:  22;

WOODRUFF       FLURRIES  19  14  79 NW10G16   30.30S WCI   8
6HR MIN TEMP:  19; 6HR MAX TEMP:  22;

RHINELANDER    CLOUDY    19  13  77 W7        30.30R WCI  10
6HR MIN TEMP:  18; 6HR MAX TEMP:  22; 6HR PCP: TRACE;

EAGLE RIVER    LGT SNOW  17  12  80 N6        30.29R WCI   9
6HR MIN TEMP:  17; 6HR MAX TEMP:  22;

LAND O LAKES   CLOUDY    17  11  79 NW5       30.30S WCI   9
6HR MIN TEMP:  16; 6HR MAX TEMP:  23;

PHILLIPS       CLOUDY    17  13  82 NW6       30.35R WCI   9
6HR MIN TEMP:  17; 6HR MAX TEMP:  21;

TOMAHAWK       CLOUDY    18  11  75 W8        30.33S WCI   8
6HR MIN TEMP:  17; 6HR MAX TEMP:  22;

MEDFORD        CLOUDY    19  12  76 NW7       30.35R WCI   9
6HR MIN TEMP:  17; 6HR MAX TEMP:  21;

MERRILL        FLURRIES  19  15  83 W7        30.35R WCI  10
6HR MIN TEMP:  18; 6HR MAX TEMP:  23;

$$

WIZ029-030-035-036-043>047-090700-
CENTRAL WISCONSIN

CITY           SKY/WX    TMP DP  RH WIND       PRES   REMARKS
WAUSAU         CLEAR     16  12  84 W9        30.34R WCI   4
6HR MIN TEMP:  16; 6HR MAX TEMP:  23; 6HR PCP: TRACE;

MOSINEE        CLEAR     18  14  86 W7        30.36S WCI   8
MARSHFIELD     CLEAR     17   9  70 NW8       30.36R WCI   7
6HR MIN TEMP:  17; 6HR MAX TEMP:  22; 6HR PCP: TRACE;

STEVENS POINT  MOCLDY    19  12  75 W6        30.37S WCI  11
6HR MIN TEMP:  19; 6HR MAX TEMP:  21;

WAUPACA        CLEAR     23  16  74 CALM      30.38R
6HR MIN TEMP:  22; 6HR MAX TEMP:  26;

WAUTOMA        MOCLDY    22  16  78 NW8       30.39S WCI  12
6HR MIN TEMP:  20; 6HR MAX TEMP:  23; 6HR PCP: TRACE;

WISC RAPIDS    CLEAR     19  13  77 NW6       30.40R WCI  11
6HR MIN TEMP:  19; 6HR MAX TEMP:  23; 6HR PCP: TRACE;

CAMP DOUGLAS   FLURRIES  22  18  83 W9        30.41S WCI  12
6HR MIN TEMP:  22; 6HR MAX TEMP:  23; 6HR PCP: TRACE;

$$

WIZ011>013-019>022-031-037>040-048>050-090700-
NORTHEAST WISCONSIN

CITY           SKY/WX    TMP DP  RH WIND       PRES   REMARKS
ANTIGO         CLEAR     15  12  87 W8        30.31R WCI   4
6HR MIN TEMP:  15; 6HR MAX TEMP:  22;

SHAWANO        PTCLDY    23  15  72 W7        30.35R WCI  15
6HR MIN TEMP:  23; 6HR MAX TEMP:  29;

OCONTO         CLOUDY    23  17  78 W6        30.34R WCI  15
6HR MIN TEMP:  21; 6HR MAX TEMP:  26;

STURGEON BAY   PTCLDY    24  16  71 NW12      30.31S WCI  13
6HR MIN TEMP:  24; 6HR MAX TEMP:  29; 6HR PCP:  0.09;

GREEN BAY      CLEAR     23  17  78 W9        30.35R WCI  13
6HR MIN TEMP:  23; 6HR MAX TEMP:  28;

MANITOWOC      CLEAR     23  17  78 MISG      30.35R
6HR MIN TEMP:  23; 6HR MAX TEMP:  29;

APPLETON       CLEAR     19  12  73 W6        30.34R WCI  11
CLINTONVILLE   CLEAR     21  14  73 W7        30.36R WCI  13
OSHKOSH        CLEAR     21  14  74 W8        30.36R WCI  11
6HR MIN TEMP:  21; 6HR MAX TEMP:  24;

$$

WIZ032>034-041-042-053>061-090700-
SOUTHWEST WISCONSIN

CITY           SKY/WX    TMP DP  RH WIND       PRES   REMARKS
LA CROSSE      CLOUDY    24  15  68 W10       30.47S WCI  14
6HR MIN TEMP:  24; 6HR MAX TEMP:  26; 6HR PCP: TRACE;

SPARTA         FLURRIES  22  18  84 W7        30.45S WCI  14
6HR MIN TEMP:  22; 6HR MAX TEMP:  24;

VIROQUA        CLOUDY    20  16  83 NW8       30.42R WCI  10
6HR MIN TEMP:  20; 6HR MAX TEMP:  22;

BOSCOBEL       CLOUDY    23  16  74 W8        30.48R WCI  14
6HR MIN TEMP:  23; 6HR MAX TEMP:  25; 6HR PCP: TRACE;

PRAIRIE DU CHI FLURRIES  21  13  72 NW9       30.50S WCI  11
6HR MIN TEMP:  21; 6HR MAX TEMP:  23;

PLATTEVILLE    CLOUDY    21  17  84 W9        30.45S WCI  10
6HR MIN TEMP:  21; 6HR MAX TEMP:  22;

$$

WIZ056-057-062-063-064-067-068-090700-
SOUTH CENTRAL WISCONSIN

CITY           SKY/WX    TMP DP  RH WIND       PRES   REMARKS
REEDSBURG      FLURRIES  22  18  83 W8        30.41S WCI  13
6HR MIN TEMP:  22; 6HR MAX TEMP:  23;

BARABOO/DELLS  CLOUDY    22  17  80 W7        30.40S WCI  14
6HR MIN TEMP:  22; 6HR MAX TEMP:  23;

LONE ROCK      FLURRIES  23  16  74 W13       30.45R WCI  11
6HR MIN TEMP:  23; 6HR MAX TEMP:  24; 6HR PCP: TRACE;

MINERAL POINT  FLURRIES  23  19  86 W12       30.42R WCI  12
MADISON        CLOUDY    22  16  78 W9        30.40R WCI  12
6HR MIN TEMP:  20; 6HR MAX TEMP:  23; 6HR PCP: TRACE;

MIDDLETON      CLOUDY    24  19  81 NW9       30.41R WCI  14
6HR MIN TEMP:  22; 6HR MAX TEMP:  25;

WATERTOWN      PTCLDY    20  17  87 W3        30.38S
6HR MIN TEMP:  20; 6HR MAX TEMP:  23;

MONROE         CLOUDY    21  18  86 W15       30.41R WCI   8
JANESVILLE     CLOUDY    23  19  86 W7        30.41S WCI  15
$$

WIZ051-052-058>065-066-070>072-090700-
SOUTHEAST WISCONSIN

CITY           SKY/WX    TMP DP  RH WIND       PRES   REMARKS
MILWAUKEE      PTCLDY    24  15  68 NW10      30.37R WCI  14
6HR MIN TEMP:  24; 6HR MAX TEMP:  25;

WAUKESHA       CLOUDY    21  18  86 W13       30.38R WCI   9
MILWAUKEE/TIMM CLOUDY    23  16  74 NW13      30.37S WCI  11
RACINE         CLOUDY    24  15  68 W12       30.39R WCI  13
6HR MIN TEMP:  23; 6HR MAX TEMP:  24;

BURLINGTON     CLOUDY    27  23  84 W9        30.39R WCI  18
6HR MIN TEMP:  25; 6HR MAX TEMP:  28;

KENOSHA        CLOUDY    22  15  75 W10       30.38R WCI  11
6HR MIN TEMP:  22; 6HR MAX TEMP:  24;

FOND DU LAC    CLOUDY    22  13  68 W13       30.37R WCI  10
6HR MIN TEMP:  22; 6HR MAX TEMP:  25;

SHEBOYGAN      CLEAR     23  16  74 W10       30.35R WCI  12
6HR MIN TEMP:  23; 6HR MAX TEMP:  26;

WEST BEND      CLOUDY    23  18  80 NW13G20   30.35S WCI  11
JUNEAU         CLEAR     20  15  80 CALM      30.39S
6HR MIN TEMP:  20; 6HR MAX TEMP:  22;

$$

LSZ147-162-090700-
LAKE SUPERIOR

STATION/POSITION TIME  TEMP    WIND        PRES    WAVE
                       AIR SEA DIR/SP/G            HT/PER
                 (UTC) (F)     (DEG/KT/KT) (MB)    (FT/S)
DEVILS ISLAND    0600   21     320/ 15/ 19 1031.3R
PORT WING        0530   21     340/ 16/ 22 1030.8R
SAXON HARBOR     0540   22     300/ 17/ 23 1029.1R
$$

LMZ867-665-643>646-090700-
LAKE MICHIGAN

STATION/POSITION TIME  TEMP    WIND        PRES    WAVE
               C1F1C2F2C3F3C4F4C5F5C6F6C7F7C8M1C9M2Ca!


USA.gov is the U.S. government's official web portal to all federal, state and local government web resources and services.